Weather History for WIPP - March, 2013

Change the Weather History Date:

Thursday, March 7, 2013

  Actual Average Record
Temperature  
Mean Temperature 84 °F -  
Max Temperature 93 °F - - ()
Min Temperature 75 °F - - ()
Cooling Degree Days 19    
Growing Degree Days 34 (Base 50)    
Moisture  
Dew Point 75 °F    
Average Humidity 78    
Maximum Humidity 94    
Minimum Humidity 55    
Precipitation  
Precipitation 0.04 in - - ()
Sea Level Pressure  
Sea Level Pressure 29.85 in    
Wind  
Wind Speed 3 mph ()    
Max Wind Speed 12 mph    
Max Gust Speed -    
Visibility 5.8 miles    
Events Rain , Thunderstorm    
T = Trace of Precipitation, MM = Missing Value Source: Averaged Metar Reports

Daily Weather History Graph

Daily Weather History Graph

Search for Another Location

Airport or City:

Trip Planner

Search our weather history database for the weather conditions in past years. The results will help you decide how hot, cold, wet, or windy it might be!

Date:

Astronomy

Mar. 07, 2013 Rise Set
Actual Time 6:07 AM WIB 6:16 PM WIB
Civil Twilight 5:47 AM WIB 6:37 PM WIB
Nautical Twilight 5:22 AM WIB 7:01 PM WIB
Astronomical Twilight 4:58 AM WIB 7:25 PM WIB
Moon 1:45 AM WIB (3/7) 2:20 PM WIB (3/7)
Length of Visible Light 12h 50m
Length of Day
12h 08m
Waning Crescent, 25% of the Moon is Illuminated
Mar 7
Waning Crescent
Mar 12
New
Mar 20
First Quarter
Mar 27
Full
Apr 3
Last Quarter

Hourly Weather History & Observations

Time (WIB) Temp. Heat Index Dew Point Humidity Pressure Visibility Wind Dir Wind Speed Gust Speed Precip Events Conditions
4:00 AM 79 °F - 76 °F 90% 29.86 in 4 mi Calm Calm - - Thunderstorm Thunderstorm
5:30 AM 75.2 °F - 73.4 °F 94% 29.86 in 6.2 mi Calm Calm - N/A   Partly Cloudy
6:00 AM 75.2 °F - 71.6 °F 89% 29.86 in 6.2 mi Calm Calm - N/A   Scattered Clouds
6:30 AM 75.2 °F - 71.6 °F 89% 29.86 in 6.2 mi SE 5.8 mph - N/A   Scattered Clouds
7:00 AM 75 °F - 72 °F 89% 29.90 in 6 mi Calm Calm - -   Overcast
7:00 AM 75.2 °F - 71.6 °F 89% 29.89 in 6.2 mi Calm Calm - N/A   Partly Cloudy
7:30 AM 75.2 °F - 73.4 °F 94% 29.92 in 6.2 mi Calm Calm - N/A   Partly Cloudy
8:00 AM 77.0 °F - 73.4 °F 89% 29.92 in 6.2 mi Calm Calm - N/A   Partly Cloudy
8:30 AM 78.8 °F - 73.4 °F 83% 29.92 in 6.2 mi Calm Calm - N/A   Partly Cloudy
9:00 AM 80.6 °F 86.2 °F 75.2 °F 84% 29.92 in 6.2 mi Calm Calm - N/A   Partly Cloudy
9:30 AM 84.2 °F 92.3 °F 75.2 °F 74% 29.92 in 6.2 mi Calm Calm - N/A   Scattered Clouds
10:00 AM 85 °F - 76 °F 69% 29.92 in 6 mi NNE 4.6 mph - -   Partly Cloudy
10:00 AM 84.2 °F 94.1 °F 77.0 °F 79% 29.92 in 6.2 mi NNE 4.6 mph - N/A   Scattered Clouds
10:30 AM 86.0 °F 96.9 °F 77.0 °F 74% 29.89 in 6.2 mi NW 5.8 mph - N/A   Scattered Clouds
11:00 AM 86.0 °F 95.1 °F 75.2 °F 70% 29.89 in 6.2 mi NW 4.6 mph - N/A   Mostly Cloudy
11:30 AM 86.0 °F 95.1 °F 75.2 °F 70% 29.89 in 6.2 mi WNW 5.8 mph - N/A   Mostly Cloudy
12:00 PM 87.8 °F 95.6 °F 73.4 °F 62% 29.89 in 6.2 mi NW 6.9 mph - N/A   Scattered Clouds
12:30 PM 87.8 °F 97.6 °F 75.2 °F 66% 29.86 in 6.2 mi WNW 9.2 mph - N/A   Scattered Clouds
1:00 PM 88 °F - 75 °F 57% 29.84 in 6 mi WNW 6.9 mph - -   Partly Cloudy
1:00 PM 87.8 °F 97.6 °F 75.2 °F 66% 29.83 in 6.2 mi WNW 6.9 mph - N/A   Scattered Clouds
1:30 PM 91.4 °F 105.1 °F 77.0 °F 63% 29.80 in 6.2 mi North 8.1 mph - N/A   Scattered Clouds
2:00 PM 91.4 °F 102.5 °F 75.2 °F 59% 29.80 in 6.2 mi NNW 5.8 mph - N/A   Scattered Clouds
2:30 PM 91.4 °F 102.5 °F 75.2 °F 59% 29.77 in 6.2 mi WNW 9.2 mph - N/A   Scattered Clouds
3:00 PM 93.2 °F 105.0 °F 75.2 °F 56% 29.77 in 6.2 mi WNW 11.5 mph - N/A   Scattered Clouds
3:30 PM 91.4 °F 100.1 °F 73.4 °F 55% 29.77 in 6.2 mi North 3.5 mph - N/A   Scattered Clouds
4:00 PM 89 °F - 77 °F 60% 29.77 in 6 mi NE 8.1 mph - -   Partly Cloudy
4:00 PM 87.8 °F 99.7 °F 77.0 °F 70% 29.77 in 6.2 mi NE 8.1 mph - N/A   Scattered Clouds
4:30 PM 87.8 °F 99.7 °F 77.0 °F 70% 29.77 in 6.2 mi North 4.6 mph - N/A   Scattered Clouds
5:00 PM 86.0 °F 96.9 °F 77.0 °F 74% 29.77 in 6.2 mi NNE 9.2 mph - N/A   Scattered Clouds
5:30 PM 82.4 °F 90.9 °F 77.0 °F 84% 29.80 in 5.0 mi North 4.6 mph - N/A Rain Light Rain
6:00 PM 82.4 °F 90.9 °F 77.0 °F 84% 29.80 in 6.2 mi NW 11.5 mph - N/A   Mostly Cloudy
6:30 PM 80.6 °F 87.1 °F 77.0 °F 89% 29.83 in 3.7 mi NNE 8.1 mph - N/A   Scattered Clouds
7:00 PM 80 °F - 76 °F 85% 29.84 in 5 mi NNE 4.6 mph - -   Haze
7:00 PM 80.6 °F 87.1 °F 77.0 °F 89% 29.83 in 5.0 mi NNE 4.6 mph - N/A   Partly Cloudy
7:30 PM 78.8 °F - 77.0 °F 94% 29.83 in 4.3 mi North 5.8 mph - N/A   Partly Cloudy
8:00 PM 78.8 °F - 77.0 °F 94% 29.83 in 4.3 mi North 5.8 mph - N/A   Partly Cloudy
8:30 PM 78.8 °F - 75.2 °F 89% 29.86 in 4.3 mi North 3.5 mph - N/A   Partly Cloudy
9:00 PM 78.8 °F - 75.2 °F 89% 29.86 in 6.2 mi NNE 3.5 mph - N/A   Partly Cloudy
9:30 PM 78.8 °F - 75.2 °F 89% 29.89 in 6.2 mi North 3.5 mph - N/A   Partly Cloudy
10:00 PM 78 °F - 75 °F 89% 29.89 in 6 mi Calm Calm - -   Scattered Clouds